Regional Weather Roundup
Issued by NWS

Home | Current Version | Previous Version | Text Only | Print | Product List | Glossary On
Versions: 1 2 3 4 5 6 7 8 9 10 11 12 13 14 15 16 17 18 19 20 21 22 23 24 25 26 27 28 29 30 31 32 33 34 35 36 37 38 39 40 41 42 43 44 45 46 47 48 49 50
000
ASUS46 KSTO 122315
RWRCA

NORTHERN AND CENTRAL CA REGIONAL WEATHER ROUNDUP
NATIONAL WEATHER SERVICE SACRAMENTO CA
300 PM PST TUE DEC 12 2017

NOTE: FAIR INDICATES FEW OR NO CLOUDS BELOW 12,000 FEET WITH NO
SIGNIFICANT WEATHER AND/OR OBSTRUCTIONS TO VISIBILITY.

CAZ001-003-130000-
NORTHWEST AREA

CITY           SKY/WX    TMP DP  RH WIND       PRES   REMARKS
CRESCENT CITY  SUNNY     58  40  51 N6        30.28F
UKIAH          SUNNY     63  33  32 W5        30.21F
$$

CAZ006-505>513-130000-
BAY AREA

CITY           SKY/WX    TMP DP  RH WIND       PRES   REMARKS
SANTA ROSA     MOSUNNY   63  36  36 CALM      30.20F
SAN RAFAEL     N/A       57  MM  MM MISG
NAPA           SUNNY     62  38  40 CALM      30.22F
CONCORD        SUNNY     65  39  38 CALM      30.22F
OAKLAND CITY   N/A      MM  MM  MM MISG
OAKLAND        MOSUNNY   58  47  66 NW8       30.21F
SAN FRAN CITY  N/A       62  MM  34 MISG
SAN FRAN ARPT  MOSUNNY   59  49  69 NE3       30.21F
LIVERMORE      SUNNY     65  33  30 E10       30.21F
HAYWARD        SUNNY     61  41  47 W7        30.21F
REDWOOD CITY   N/A       66  MM  30 MISG
MOFFETT ARPT   SUNNY     66  41  40 NW6       30.21F
SAN JOSE ARPT  MOSUNNY   66  38  35 NW3       30.21F
$$
CAZ034-037-514>518-130000-
CENTRAL COAST

CITY           SKY/WX    TMP DP  RH WIND       PRES   REMARKS
WATSONVILLE    SUNNY     73  40  30 VRB3      30.16F
SALINAS        SUNNY     76  28  17 NW5       30.14F
MONTEREY       SUNNY     64  40  41 NW5       30.17F
SAN LUIS OBISP SUNNY     82  24  12 NW13      30.08F
SANTA MARIA    MOSUNNY   80  21  11 NW9       30.08F
$$
CAZ015-016-130000-
NORTHERN SACRAMENTO VALLEY

CITY           SKY/WX    TMP DP  RH WIND       PRES   REMARKS
REDDING        SUNNY     67  33  28 S3        30.21F
RED BLUFF      SUNNY     67  27  22 E3        30.22F
OROVILLE       SUNNY     57  39  51 NW3       30.24F
$$
CAZ016>018-130000-
SOUTHERN SACRAMENTO VALLEY

CITY           SKY/WX    TMP DP  RH WIND       PRES   REMARKS
AUBURN         SUNNY     61  37  41 W3        30.22F
BEALE AFB      SUNNY     60  34  38 N3        30.20F
LINCOLN        FAIR      59  34  38 CALM      30.22F
MARYSVILLE     SUNNY     62  35  36 CALM      30.22F
SAC INTL ARPT  SUNNY     60  38  43 CALM      30.22F
MATHER AIRPORT SUNNY     61  37  41 W6        30.22F
DOWNTOWN SAC   N/A       62  MM  MM MISG
SAC EXEC ARPT  SUNNY     61  40  45 W3        30.22F
VACAVILLE      SUNNY     65  36  34 VRB3      30.24F
TRAVIS AFB     SUNNY     62  36  37 NE6       30.21F
$$
CAZ019>021-130000-
SAN JOAQUIN VALLEY

CITY           SKY/WX    TMP DP  RH WIND       PRES   REMARKS
STOCKTON       SUNNY     62  41  46 W6        30.22F
MODESTO        SUNNY     62  40  44 NW6       30.22F
MERCED         SUNNY     62  35  36 NW6       30.21F
LEMOORE        MOSUNNY   60  33  36 VRB3      30.21F HAZE
FRESNO         SUNNY     62  37  39 NW3       30.21F HAZE
HANFORD        SUNNY     63  37  38 CALM      30.21F HAZE
PORTERVILLE    SUNNY     64  38  38 CALM      30.21F HAZE
BAKERSFIELD    SUNNY     64  35  34 SW5       30.20F HAZE
$$
CAZ011-012-071-130000-
NORTHERN MOUNTAINS

CITY           SKY/WX    TMP DP  RH WIND       PRES   REMARKS
YREKA          SUNNY     41  26  55 CALM      30.42F
MOUNT SHASTA   MOSUNNY   42  26  53 W8        30.35F
ALTURAS        SUNNY     50  20  30 CALM      30.39S
$$
CAZ011-012-071-130000-
SIERRA NEVADA MTNS

CITY           SKY/WX    TMP DP  RH WIND       PRES   REMARKS
BLUE CANYON    SUNNY     65  35  33 NW3       30.33F
TRUCKEE        SUNNY     52  14  22 CALM      30.40F
TAHOE VLY ARPT SUNNY     46  30  53 N3        30.40F
MAMMOTH LAKES  FAIR      58  -4   8 SW5       30.42F
$$




USA.gov is the U.S. government's official web portal to all federal, state and local government web resources and services.